{"data":{"norad_id":65620,"epoch":"2026-09-20T11:59:04.773120Z","epoch_age_seconds":152508,"freshness":"FRESH","line1":"1 65620U 25209D   26263.49936080 -.00000087  00000+0  74094-4 0  9998","line2":"2 65620  50.0025   9.3490 0003746 315.8762  44.1816 13.41483679 50432","mean_motion":13.41483679,"eccentricity":0.0003746,"inclination_deg":50.0025,"raan_deg":9.349,"arg_perigee_deg":315.8762,"mean_anomaly_deg":44.1816,"bstar":7.4094e-5,"rev_number":5043,"period_min":107.34383299195,"perigee_km":1100.9547670113,"apogee_km":1106.5602023592,"semimajor_km":7481.8944846852,"source":"CELESTRAK","updated_at":"2026-09-21T09:00:15.474933Z"}}